Regional Weather Roundup
Issued by NWS Northern Indiana

Home | Current Version | Previous Version | Graphics & Text | Print | Product List | Glossary On
Versions: 1 2 3 4 5 6 7 8 9 10 11 12 13 14 15 16 17 18 19 20 21 22 23 24 25 26 27 28 29 30 31 32 33 34 35 36 37 38 39 40 41 42 43 44 45 46 47 48 49 50
000
ASUS43 KIWX 271700
RWRIWX

KIWX WEATHER ROUNDUP
NATIONAL WEATHER SERVICE NORTHERN INDIANA
100 PM EDT TUE SEP 27 2016

NOTE: "FAIR" INDICATES FEW OR NO CLOUDS BELOW 12,000 FEET WITH NO
SIGNIFICANT WEATHER AND/OR OBSTRUCTIONS TO VISIBILITY.

* THESE STATIONS ARE NOT UNDER NWS QUALITY CONTROL. THEY ALSO MAY NOT
  REPORT WEATHER SUCH AS PRECIPITATION OR FOG.

INZ001>027-271800-
NORTHERN INDIANA

CITY           SKY/WX    TMP DP  RH WIND       PRES   REMARKS
GARY*          MOSUNNY   70  30  23 W32G44    29.82F
SOUTH BEND     FAIR      65  35  33 W20G30    29.80F
ELKHART*       SUNNY    N/A N/A N/A W14G29    29.78F
GOSHEN         FAIR      67  34  29 W25G33    29.81F
ANGOLA*          N/A     66  59  77 W20G28    29.80F
FORT WAYNE     FAIR      70  34  26 SW18G29   29.83F
PERU/GRISSOM   FAIR      70  35  27 W23G32    29.83F

$$
INZ028>050-271800-
CENTRAL INDIANA

CITY           SKY/WX    TMP DP  RH WIND       PRES   REMARKS
LAFAYETTE      FAIR      70  40  33 W18G30    29.86F
MUNCIE*        FAIR      72  43  35 W17G24    29.86F
INDIANAPOLIS   FAIR      71  47  42 W17       29.90F

$$
MIZ043>046-050>051-056>058-064>065-071>073-077>080-271800-
SOUTHWEST LOWER MICHIGAN

CITY           SKY/WX    TMP DP  RH WIND       PRES   REMARKS
BATTLE CREEK   FAIR      66  41  40 W24G33    29.75F
BENTON HARBOR  FAIR      68  36  30 W26G36    29.77F
COLDWATER*     FAIR      66  32  28 W23G32    29.78F
HILLSDALE*     FAIR      64  32  29 W17G32    29.78F
HOLLAND        PTSUNNY   63  44  50 W21G26    29.74F
GRAND RAPIDS   PTSUNNY   61  43  51 W26       29.72F
KALAMAZOO      FAIR      66  36  32 W23G35    29.77F
STURGIS*       FAIR      65  35  31 W15G24    29.78F
THREE RIVERS*  FAIR      66  35  31 W17G28    29.79S

$$
OHZ001>008-015>018-024>025-271800-
NORTHWEST OHIO

CITY           SKY/WX    TMP DP  RH WIND       PRES   REMARKS
DEFIANCE       FAIR      68  35  29 SW16G26   29.81F
FINDLAY        FAIR      72  36  26 W28G36    29.82F
TOLEDO EXPRESS FAIR      69  38  32 SW25G33   29.80F
TOLEDO METCALF FAIR      69  38  32 W26G35    29.80F
LIMA           FAIR      71  44  37 W21G28    29.84F

$$
AND FOR LAKE MICHIGAN COASTAL AND OPEN LAKE BUOY OBSERVATIONS

STATION/POSITION TEMP    WIND        PRES    VSBY  WAVE
                 AIR SEA DIR/SP/G                  HT/PER
                 (F)     (DEG/KT/KT) (MB)    (MI)  (FT/S)
CALUMET HARBOR    67     250/  6/ 22 1008.8F
MICHIGAN CITY     63     220/ 31/ 34   N/A
BURNS HARBOR      64     260/ 21/ 29 1009.8F
SAINT JOSEPH      64     260/ 22     1009.1S
SOUTH LAKE BUOY   59 70  260/ 21/ 25 1006.6          6/ 6
4 MI NW BRIDGMAN  64 67  250/ 23/ 29 1008.5F         8/ 6
MICHIGAN CITY     64 67  260/ 21/ 27   N/A           5/ 4

$$
&&




USA.gov is the U.S. government's official web portal to all federal, state and local government web resources and services.